Location: Chippewa Lake
(41.0698°N, 81.9010°W)
Time: 21:54:16
(UTC+00:00)

USA 290 - Pass Details

Date: 09 May 2021
Orbit: 400 x 415 km, 73.6° (Epoch: 12 May)

Event Time Altitude Azimuth Distance (km) Brightness Sun altitude
Rises 01:35:06 0° 353° (N) 2,349 6.7 -11.1°
Reaches altitude 10° 01:37:27 10° 9° (N) 1,479 5.4 -11.5°
Maximum altitude 01:40:04 22° 63° (ENE) 945 3.8 -11.9°
Enters shadow 01:41:21 18° 97° (E) 1,094 3.8 -12.1°
